Overview Statistics Trail Chart Weather Telemetry Raw packets
 

This is the latest recevied weather packets stored in our database for station/object K7MT-WX. If no packets are shown the sender has not sent any weather packets the latest 10 day(s).

<< 23 24 25 26 27 28 29 >>
Time Temp. Humidity Pressure Rain* Wind** Luminosity Snow
1788079649 12.78° C 74% 1014.2 hPa 0 mm - - -
1788078749 13.33° C 75% 1014.6 hPa 0 mm - - -
1788077849 12.78° C 77% 1014.4 hPa 0 mm - - -
1788076949 12.78° C 77% 1013.8 hPa 0 mm - - -
1788076049 13.33° C 75% 1013.3 hPa 0 mm - - -
1788075149 13.33° C 82% 1013 hPa 0 mm - - -
1788074249 13.33° C 87% 1012.8 hPa 0 mm - - -
1788073349 13.33° C 88% 1012.9 hPa 0 mm - - -
1788072449 13.33° C 90% 1012.9 hPa 0 mm - - -
1788071549 13.33° C 90% 1012.4 hPa 0 mm - - -
1788070649 13.33° C 90% 1013 hPa 0 mm - - -
1788069749 13.89° C 88% 1012.7 hPa 0 mm - - -
1788068849 13.33° C 89% 1012.6 hPa 0 mm - - -
1788067949 13.33° C 89% 1012.3 hPa 0.25 mm - - -
1788067049 13.33° C 90% 1012.6 hPa 0.25 mm - - -
1788066149 13.33° C 89% 1012.5 hPa 0.51 mm - - -
1788065249 13.89° C 88% 1012.2 hPa 1.02 mm - - -
1788064349 14.44° C 87% 1011.9 hPa 1.27 mm - - -
1788063449 15° C 83% 1012.1 hPa 1.27 mm - - -
1788062549 16.11° C 78% 1012.2 hPa 1.02 mm - - -
1788061649 16.67° C 77% 1012.5 hPa 0.51 mm - - -
1788060749 16.67° C 78% 1011.9 hPa 0 mm - - -
1788059849 16.67° C 77% 1011.4 hPa 0 mm - - -
1788058949 16.67° C 76% 1011.1 hPa 0 mm - - -
1788058049 16.67° C 75% 1011 hPa 0 mm - - -

* Rain latest hour (hover to see other rain measurements)
** Current wind speed in m/s (hover to see current wind gust speed)